Regional Weather Roundup
Issued by NWS Cleveland, OH

Home | Current Version | Previous Version | Text Only | Print | Product List | Glossary Off
Versions: 1 2 3 4 5 6 7 8 9 10 11 12 13 14 15 16 17 18 19 20 21 22 23 24 25 26 27 28 29 30 31 32 33 34 35 36 37 38 39 40 41 42 43 44 45 46 47 48 49 50

000
ASUS41 KCLE 242212
RWRCLE
OHIO REGIONAL WEATHER ROUNDUP
NATIONAL WEATHER SERVICE WILMINGTON, OH
500 PM EST FRI NOV 24 2017

NOTE: "FAIR" INDICATES FEW OR NO CLOUDS BELOW 12,000 FEET WITH NO
SIGNIFICANT WEATHER AND/OR OBSTRUCTIONS TO VISIBILITY.

OHZ001>008-015>018-024>027-034-035-043-044-242300-
   NORTHWEST OHIO

CITY           SKY/WX    TMP DP  RH WIND       PRES   REMARKS
DEFIANCE       FAIR      52  33  48 S13       29.68S
FINDLAY        FAIR      50  31  48 S15       29.71F
TOLEDO EXPRESS FAIR      53  34  48 S13G21    29.68S
TOLEDO EXEC    FAIR      52  33  48 S16       29.70S
LIMA           FAIR      50  31  48 S15       29.72F
$$

OHZ009>014-019>023-028>033-038-089-242300-
   NORTHEAST OHIO

CITY           SKY/WX    TMP DP  RH WIND       PRES   REMARKS
CLE-HOPKINS    FAIR      51  27  39 S15       29.76F
CLE-LAKEFRONT  FAIR      52  26  36 S14G25    29.73S
CUY CO. ARPT   PTCLDY    52  28  40 S12G21    29.74F
LORAIN-ELYRIA  FAIR      50  25  37 S15       29.73F
ASHTABULA      FAIR      49  24  37 S9        29.75F
AKRON-CANTON   FAIR      49  23  36 S12       29.79S
WOOSTER        FAIR      47  26  44 S9        29.78F
MANSFIELD      FAIR      48  29  47 S15       29.76F
YOUNGSTOWN     FAIR      50  23  34 S10       29.78F
$$

OHZ042-051>053-060>062-070>072-077>081-242300-
  SOUTHWEST OHIO

CITY           SKY/WX    TMP DP  RH WIND       PRES   REMARKS
CINC-COVINGTON FAIR      53  28  38 S12       29.81S
CINC-LUNKEN    FAIR      52  30  43 S8        29.82F
HAMILTON       FAIR      55  28  35 S8        29.81S
DAYTON         FAIR      51  28  41 S14       29.78F
WRIGHT-PAT AFB PTCLDY    52  24  33 S10       29.77F
DAYTON GENERAL FAIR      53  27  36 S10       29.78F
WILMINGTON     FAIR      50  30  46 S10       29.80F
$$

OHZ036-037-039>041-045>050-054>059-063>069-073>076-082>088-242300-
  CENTRAL AND SOUTHEAST OHIO

CITY           SKY/WX    TMP DP  RH WIND       PRES   REMARKS
COLUMBUS       FAIR      53  26  35 S9        29.81S
OSU AIRPORT    FAIR      51  28  41 S10       29.79F
BOLTON FIELD   CLEAR     52  28  40 S9        29.81S
RICKENBACK AFB FAIR      50  27  40 S7        29.81S
NEWARK         FAIR      51  23  33 SW7       29.81S
MARION         FAIR      50  28  42 S16       29.76F
LANCASTER      FAIR      51  26  37 S6        29.83S
ZANESVILLE     FAIR      50  23  34 S8        29.83S
NEW PHILLY     FAIR      51  23  33 S5        29.82S
$$




USA.gov is the U.S. government's official web portal to all federal, state and local government web resources and services.